Location: Campavaglio
(41.1333°N, 9.2333°E)
Time: 09:33:46
(UTC+00:00)

Cosmos 2360 Rocket - Pass Details

Date: 07 June 2020
Orbit: 832 x 846 km, 71.0° (Epoch: 11 July)

Event Time Altitude Azimuth Distance (km) Brightness Sun altitude
Exits shadow 02:25:24 19° 221° (SW) 1,900 3.4 -13.2°
Maximum altitude 02:29:26 59° 297° (WNW) 960 2.4 -12.7°
Drops below altitude 10° 02:35:00 10° 17° (NNE) 2,460 5.7 -12.0°
Sets 02:37:30 0° 21° (NNE) 3,401 6.7 -11.6°
